Overview Statistics Trail Chart Weather Telemetry Raw packets
 

This is the latest recevied weather packets stored in our database for station/object OM6ACB-6. If no packets are shown the sender has not sent any weather packets the latest 10 day(s).

<< 1 2 3 4 5 >>
Time Temp. Humidity Pressure Rain* Wind** Luminosity Snow
1788649589 14.44° C 25% 1024.3 hPa 0 mm - - -
1788648989 16.11° C 25% 1024.4 hPa 0 mm - - -
1788648389 15° C 25% 1024.3 hPa 0 mm - - -
1788647788 16.11° C 25% 1024.5 hPa 0 mm - - -
1788647188 15° C 25% 1024.3 hPa 0 mm - - -
1788646588 16.11° C 24% 1024.3 hPa 0 mm - - -
1788645988 15.56° C 25% 1024.3 hPa 0 mm - - -
1788645387 16.67° C 24% 1024.3 hPa 0 mm - - -
1788644787 16.67° C 24% 1024.3 hPa 0 mm - - -
1788644187 16.67° C 24% 1024.2 hPa 0 mm - - -
1788643586 15.56° C 25% 1023.6 hPa 0 mm - - -
1788642986 14.44° C 25% 1023.7 hPa 0 mm - - -
1788642386 14.44° C 25% 1023.6 hPa 0 mm - - -
1788641785 15° C 25% 1023.7 hPa 0 mm - - -
1788641185 14.44° C 25% 1023.6 hPa 0 mm - - -
1788640585 15° C 25% 1023.6 hPa 0 mm - - -
1788639985 14.44° C 25% 1023.6 hPa 0 mm - - -
1788639384 14.44° C 25% 1023.5 hPa 0 mm - - -
1788638784 13.89° C 26% 1023.3 hPa 0 mm - - -
1788638184 13.89° C 26% 1023.3 hPa 0 mm - - -
1788637583 13.89° C 26% 1023.3 hPa 0 mm - - -
1788636988 14.44° C 25% 1023.2 hPa 0 mm - - -
1788636383 14.44° C 25% 1023.1 hPa 0 mm - - -
1788635783 13.89° C 26% 1023 hPa 0 mm - - -
1788635182 13.89° C 26% 1022.8 hPa 0 mm - - -

* Rain latest hour (hover to see other rain measurements)
** Current wind speed in m/s (hover to see current wind gust speed)